User: anonymous   Login
Location: Dompnac
(44.5644°N, 4.1026°E)
Time: 11:07:47
(UTC+00:00)
Language:

Okean 1 Rocket - Orbit

View from above orbital plane
View from above orbital plane
View from above satellite
View from above satellite

Ground track
Ground track

The orbit data is extracted from the following two-line orbital elements,

1 19275U 88056B   20337.79255108  .00000146  00000-0  15065-4 0  9995
2 19275  82.5174 227.4199 0020200   5.5294 354.6140 14.82767663729568
Epoch (UTC): 02 December 2020 19:01:16
Eccentricity: 0.0020200
inclination: 82.5174°
perigee height: 606 km
apogee height: 635 km
right ascension of ascending node: 227.4199°
argument of perigee: 5.5294°
revolutions per day: 14.82767663
mean anomaly at epoch: 354.6140°
orbit number at epoch: 72956

The dashed part of the orbit path shows where the satellite is in the earth's shadow,  

DLR